User: anonymous   Login
Location: Pleiades Observatory
(40.1297°N, 91.5238°W)
Time: 01:37:00
(UTC-05:00)
Language:

Cosmos 1842 Rocket - Orbit

View from above orbital plane
View from above orbital plane
View from above satellite
View from above satellite

Ground track
Ground track

The orbit data is extracted from the following two-line orbital elements,

1 17912U 87038B   15213.91682586  .00000207  00000-0  22629-4 0  9997
2 17912 082.5044 333.2346 0019540 330.8574 029.1548 14.82746049526173
Epoch (UTC): 01 August 2015 22:00:13
Eccentricity: 0.0019540
inclination: 82.5044°
perigee height: 607 km
apogee height: 634 km
right ascension of ascending node: 333.2346°
argument of perigee: 330.8574°
revolutions per day: 14.82746049
mean anomaly at epoch: 29.1548°
orbit number at epoch: 52617

The dashed part of the orbit path shows where the satellite is in the earth's shadow,  

DLR